Regional Weather Roundup
Issued by NWS Wakefield, VA

Home | Current Version | Previous Version | Text Only | Print | Product List | Glossary On
Versions: 1 2 3 4 5 6 7 8 9 10 11 12 13 14 15 16 17 18 19 20 21 22 23 24 25 26 27 28 29 30 31 32 33 34 35 36 37 38 39 40 41 42 43 44 45 46 47 48 49 50
000
ASUS41 KAKQ 251016
RWRAKQ

REGIONAL WEATHER ROUNDUP
NATIONAL WEATHER SERVICE WAKEFIELD VA
600 AM EDT MON SEP 25 2017

Note: "fair" indicates few or no clouds below 12,000 feet with no
significant weather and/or obstructions to visibility. * = Denotes
station may not report precipitation (e.g., rain,snow,etc.),
thunder or fog.

VAZ042-051-052>054-056-251100-
NORTHERN VIRGINIA

CITY           SKY/WX    TMP DP  RH WIND       PRES   REMARKS
WASH NATIONAL  PTCLDY    71  67  87 N5        30.03S
DULLES         CLEAR     67  66  97 NW5       30.04R
FORT BELVOIR   CLEAR     64  63  97 CALM      30.02S
QUANTICO       CLEAR     67  67 100 NW5       30.03S
FREDERICKSBRG* CLEAR     64  64 100 CALM      30.02S
STAFFORD*      CLEAR     61  61 100 CALM      30.07S FOG
WARRENTON      FOG       57  55  91 CALM      30.03S VSB 3/4
CULPEPER*      FOG       62  62 100 CALM      30.05R VSB 3/4
MANASSAS*      CLEAR     60  60 100 CALM      30.04S
LEESBURG*      CLEAR     63  63 100 CALM      30.05S
WINCHESTER     CLEAR     61  59  94 CALM      30.07S
FRONT ROYAL*   SUNNY     59  59 100 CALM      30.06S
LURAY*         SUNNY     61  61 100 SW3       30.08S
$$

VAZ048-049-060>072-079>083-251100-
CENTRAL AND SOUTH CENTRAL VIRGINIA

CITY           SKY/WX    TMP DP  RH WIND       PRES   REMARKS
RICHMOND       PTCLDY    64  62  93 N6        30.01S
CHESTERFIELD*  NOT AVBL
PETERSBURG*    CLEAR     61  61 100 CALM      30.01F
HANOVER        CLEAR     63  62  97 CALM      30.04R
TAPPAHANNOCK*  CLEAR    N/A N/A N/A CALM      30.02S
QUINTON*       FAIR      60  60 100 CALM      30.01R
CHARLOTTSVILLE CLEAR     66  64  93 CALM      30.05R
GORDONSVILLE*  SUNNY     61  61 100 CALM      30.04R
ORANGE*        CLEAR     61  61 100 CALM      30.04S
LOUISA*        FOG       61  59  94 CALM      30.04R VSB 1/2
BUMPASS*         N/A     62  62 100 NW3       30.04R
FARMVILLE*     CLEAR     63  63 100 CALM      30.02R
CREWE*         FAIR      64  64 100 N3        30.02S
FORT PICKETT*  FAIR      64  64 100 N6        30.02S
CHASE CITY*    FAIR      67  67  99 N5        30.02R
CLARKSVILLE*   FAIR      64  63  94 CALM      30.01R
SOUTH HILL*    CLEAR     62  61  97 CALM      30.07R
LAWRENCEVILLE* FAIR      62  60  92 CALM      30.01R
EMPORIA*       CLEAR     59  59 100 NW5       30.01S
$$

VAZ088>098-251100-
SOUTHEAST VIRGINIA

CITY           SKY/WX    TMP DP  RH WIND       PRES   REMARKS
NORFOLK        CLOUDY    72  68  87 E8        29.99R
VIRGINIA BEACH CLOUDY    71  66  84 E9        29.98R
NORFOLK NAVAL  CLOUDY    73  67  81 E9        30.01R
WEST POINT*    CLEAR     59  57  94 CALM      30.02S
SALUDA*        FAIR      64  64 100 CALM      30.00S
NEWPORT NEWS   CLEAR     66  64  93 E5        30.00R
LANGLEY AFB    CLEAR     70  67  89 E8        29.99S
FORT EUSTIS    CLEAR     66  64  92 CALM      29.98R
WILLIAMSBURG*  CLEAR     64  64 100 CALM      30.01R
HR EXEC AP*    CLOUDY    61  60  97 CALM      30.00R
FRANKLIN*      PTCLDY    59  58  98 CALM      30.00S
US460-WAKEFLD  CLEAR     60  60 100 CALM      30.00R
$$

VAZ020-022-025-037-045-251100-
WEST CENTRAL AND SOUTHWEST VIRGINIA

CITY           SKY/WX    TMP DP  RH WIND       PRES   REMARKS
STAUNTON*      FOG       54  54  99 CALM      30.11S VSB 1/2
WAYNESBORO*    SUNNY     59  59 100 CALM      30.10S
HOT SPRINGS VA CLEAR     64  57  77 E3        30.20S
LYNCHBURG      CLEAR     66  62  87 N5        30.05S
DANVILLE       MOCLDY    62  62 100 N3        30.02S
SOUTH BOSTON*  FAIR      60  58  95 CALM      30.02S
MARTINSVILLE   CLOUDY    59  59  98 CALM      30.08S
ROANOKE        CLEAR     62  61  96 CALM      30.10R
BLACKSBURG     CLEAR     59  59 100 CALM      30.15S
DUBLIN*        CLEAR     58  57  97 CALM      30.13S
MARION*        CLOUDY    57  54  91 CALM      30.17R
HILLSVILLE*    CLEAR     58  55  87 CALM      30.13S
RICHLANDS*     FAIR      67  58  71 CALM      30.14S
WISE*          MOCLDY    64  54  68 CALM      30.15S
ABINGDON*      PTCLDY    63  57  82 E6        30.11S
$$

MDZ021>025-VAZ099-100-251100-
SOUTHERN MARYLAND AND THE DELMARVA PENINSULA

CITY           SKY/WX    TMP DP  RH WIND       PRES   REMARKS
PATUXENT RIVER CLEAR     63  63 100 CALM      30.01S
BAY BRIDGE APT CLEAR     68  66  94 CALM      30.02S
LEONARDTOWN    CLEAR     63  63 100 CALM      30.04R
DOVER          CLEAR     65  65 100 CALM      30.02R
GEORGETOWN     MOCLDY    63  61  93 CALM      30.04R
EASTON         CLEAR     66  63  88 CALM      30.06R
CAMBRIDGE      CLEAR     63  61  94 CALM      30.02R
SALISBURY      CLEAR     63  62  97 NE5       30.02R
OCEAN CITY     CLEAR     69  66  90 E5        30.03R
WALLOPS ISLAND CLEAR     64  64 100 N3        30.02R
ACCOMACK*      CLEAR     60  60  99 NE3       30.01R FOG
$$

NCZ012>017-030>032-251100-
NORTH CENTRAL AND EASTERN NORTH CAROLINA

CITY           SKY/WX    TMP DP  RH WIND       PRES   REMARKS
ROANOKE RAPIDS FAIR      61  61 100 CALM      29.99S FOG
RALEIGH        CLOUDY    66  62  87 NE6       30.00R
ELIZABETH CITY PTCLDY    72  69  90 NE12      29.96S
AHOSKIE*       PTCLDY    62  62 100 N3        29.99R
EDENTON*       CLOUDY    69  67  93 CALM      29.96F
CURRITUCK*     MOCLDY    72  67  85 NE7       29.97S
KILL DEVIL HLS CLOUDY    70  66  89 NE9G16    29.94R
MANTEO         CLOUDY    71  68  89 NE16G23   29.94F
CAPE HATTERAS  CLOUDY    73  72  96 NE8G22    29.90R
TARBORO*       NOT AVBL
GOLDSBORO      CLOUDY    67  67 100 N9        29.93F
WASHINGTON     CLOUDY    66  65  96 N5        29.94F
GREENVILLE     MOCLDY    63  63 100 N6        29.97F
NEW BERN       CLOUDY    71  69  93 NE9       29.93S
WILMINGTON     CLOUDY    70  67  90 N10       29.90S
$$

VAZ048-251100-
ELSEWHERE

CITY           SKY/WX    TMP DP  RH WIND       PRES   REMARKS
HARRISBURG PA  PTCLDY    71  69  93 NW7       30.04R
BALTIMORE      PTCLDY    65  65 100 NW3       30.03R
ANNAPOLIS      CLEAR     72  72 100 CALM      30.02R
ANDREWS AFB    CLEAR     64  62  96 CALM      30.02S
PHILADELPHIA   PTCLDY    70  67  90 CALM      30.03R
HENDERSON NC   CLOUDY    61  59  92 N5        30.01S
GREENSBORO     CLOUDY    68  63  84 N7        30.02F
ROCKY MOUNT    CLOUDY    63  63 100 NE6       29.99R
$$

VAZ100-251100-
MARINE

STATION/POSITION TIME  TEMP    WIND        PRES    WAVE   SWELL
                       AIR SEA DIR/SP/G            HT/PER HT/PER
                 (UTC) (F)     (DEG/KT/KT) (MB)    (FT/S) (FT/S)
BRANDYWINE LGT   0936   74     110/  7/  7 1017.2R
CAPE MAY NJ      0948   68 74   CALM  /  1 1016.5R
LEWES DE         0948   71 75  100/  3/  4 1016.5R
15NM E FENWICK I 0950   71 72   50/ 10/ 12 1016.9R   3/16   3/16
OCEAN-CITY-INLET 0948   72 75   80/  5/  9 1016.9R
WACHAPREAGUE VA  0948   72 76   60/ 10/ 11 1016.0R
THOMAS POINT MD  1000   74 77  360/  3/  3   N/A
GOOSES REEF MD   1000   76 76  100/  4/  4 1017.2    0
COVE POINT MD    0948   75      40/  4/  5 1017.2R
SOLOMONS ISLAND  0948   70 77  340/  4/  4 1016.1R
BISHOPS HEAD MD  0948   73 78   60/  8/  9 1016.4R
PINEY POINT MD   0948           50/  3/  4   N/A
POTOMAC MD       1000   76 77   70/  8/  8 1015.6    1
CAMBRIDGE MD     0948   71 78              1017.5R
LEWISETTA VA     0948   76 78   60/  4/  6 1016.1R
RAPPAHANNOCK LGT 0948           50/  8/  9 1016.5R
STINGRAY PT      1000   74 76   90/ 10/ 12 1016.4    1/ 2
YORK RVR RNG VA  0948   74      90/ 10/ 12 1016.3R
YORKTOWN VA      0948   73 77   50/  8/ 10 1015.4R
JAMESTOWN VA     1000      79   50/  2/  2   N/A     0
DOMINION TERM VA 0948   73      90/  4/  7 1015.9R
KIPTOPEKE VA     0948      76   90/  6/  9   N/A
CHES BAY BRIDGE  0948   72 76   80/ 17/ 18 1015.3R
CAPE HENRY VA    0948   71      70/ 15/ 19   N/A
WILLOUBY STN VA  0948   72      80/ 12/ 13 1015.7R
S CRANEY ISL VA  0948   72      90/  6/  8 1015.4R
CAPE HENRY BUOY  1000      75                N/A     4/14   3/14
1ST LANDING BUOY 1000   72 76              1015.8    2/ 4
64NM E OF VA BCH 0950   71 70   40/ 14/ 16 1014.7R  11/14  11/14
DUCK PIER NC     0948   72 76   50/ 19/ 21 1013.8S
44100 DUCK FRF   0935      74                N/A     6/13   3/13
44056 DUCK FRF   0930      75                N/A     6/14   3/14
OREGON INLET NC  0936   72 76   30/ 16/ 22 1013.1S
HATTERAS NC      0948   73 78   50/ 13/ 20 1012.3R
DIAMOND SHLS NC  0950   75 77   30/ 21/ 25 1011.0S  12/14  10/14
CAPE LOOKOUT NC  1000   74      20/ 18/ 22 1011.6R
$$



USA.gov is the U.S. government's official web portal to all federal, state and local government web resources and services.